Location: Oberstdorf
(47.4188°N, 10.2969°E)
Time: 14:34:04
(UTC+02:00)

ISS - Visible Passes

Search period start: 24 July 2017 00:00
Search period end: 03 August 2017 00:00
Orbit: 400 x 408 km, 51.6° (Epoch: 24 July)

Date Brightness Start Highest point End Pass type
(mag) Time Alt. Az. Time Alt. Az. Time Alt. Az.
24 Jul -2.4 01:00:01 10° WNW 01:03:06 38° N 01:06:12 10° ENE visible
24 Jul -2.9 02:36:47 10° WNW 02:39:58 49° NNE 02:43:10 10° E visible
24 Jul -3.6 04:13:19 10° WNW 04:16:28 44° SSW 04:19:35 10° SE visible
24 Jul -3.8 22:30:57 10° SW 22:34:08 54° SSE 22:37:20 10° ENE visible
25 Jul -2.7 00:07:33 10° W 00:10:41 44° NNW 00:13:50 10° ENE visible
25 Jul -2.5 01:44:27 10° WNW 01:47:34 40° N 01:50:41 10° E visible
25 Jul -4.0 03:20:57 10° WNW 03:24:13 73° SSW 03:27:28 10° ESE visible
25 Jul -2.0 04:58:34 10° WSW 05:00:13 13° SW 05:01:50 10° SSW visible
25 Jul -3.1 21:38:58 10° SSW 21:41:55 32° SE 21:44:53 10° ENE visible
25 Jul -3.2 23:15:05 10° W 23:18:17 57° NNW 23:21:31 10° ENE visible
26 Jul -2.3 00:52:03 10° WNW 00:55:07 37° N 00:56:44 22° ENE visible
26 Jul -1.4 02:28:38 10° WNW 02:29:17 15° WNW 02:29:17 15° WNW visible
26 Jul -3.8 22:22:40 10° WSW 22:25:55 81° NNW 22:29:11 10° ENE visible
26 Jul -2.3 23:59:35 10° WNW 00:02:40 37° N 00:05:20 13° ENE visible
27 Jul -1.9 01:36:19 10° WNW 01:37:56 26° NW 01:37:56 26° NW visible
27 Jul -2.6 23:07:05 10° W 23:10:12 42° N 23:13:20 10° ENE visible
28 Jul -2.6 00:43:57 10° WNW 00:46:57 42° N 00:46:57 42° N visible
28 Jul -3.0 22:14:34 10° W 22:17:45 52° NNW 22:20:58 10° ENE visible
28 Jul -2.4 23:51:32 10° WNW 23:54:37 38° N 23:56:05 24° ENE visible
29 Jul -1.2 01:28:05 10° WNW 01:28:42 15° WNW 01:28:42 15° WNW visible
29 Jul -2.4 22:59:03 10° WNW 23:02:07 37° N 23:05:11 10° ENE visible
30 Jul -2.4 00:35:42 10° WNW 00:37:53 36° NW 00:37:53 36° NW visible
30 Jul -2.5 22:06:30 10° W 22:09:37 40° N 22:12:43 10° ENE visible
30 Jul -2.9 23:43:19 10° WNW 23:46:29 45° NNE 23:47:07 39° NE visible
31 Jul -2.5 22:50:53 10° WNW 22:53:59 39° N 22:56:21 15° ENE visible
01 Aug -1.9 00:27:24 10° WNW 00:28:58 26° WNW 00:28:58 26° WNW visible
01 Aug -2.4 21:58:22 10° WNW 22:01:26 37° N 22:04:31 10° ENE visible
01 Aug -3.6 23:34:59 10° WNW 23:38:13 66° NNE 23:38:13 66° NNE visible
02 Aug -3.1 22:42:35 10° WNW 22:45:45 49° NNE 22:47:30 23° E visible
